www.pogodaiklimat.ru

Погода и климат >> Архив погоды >> Малайзия >> Kota Kinabalu


ПОГОДА в Kota Kinabalu

  • Прогноз погоды в Kota Kinabalu
  • Монитор погоды в Kota Kinabalu
  • Климат города

АРХИВ ПОГОДЫ в Kota Kinabalu

Время (UTC), дата Ветер
(напр.,м/с)
 
Видим.   Явления Облачность Т
(С)
Тd
(С)
f
(%)
Тe
(С)
Тes
(С)
Комфортность P
(гПа)
Po
(гПа)
Тmin
(С)
Tmax
(С)
R
(мм)
R24
(мм)
S
(см)
06 22.04 З 1 15 км слабый дождь 10/4 420 м
[Cu Sc Ac lent Cs]
+26.4 +24.4 89 +37 +44 очень
душно
1011.2 1010.9 3
09 22.04 ЮВ 3 18 км 8/3 420 м
[Cu Sc Ac lent Cs]
+26.9 +23.5 82 +37 +38 очень
душно
1009.5 1009.2
12 22.04 В 3 18 км {дождь} 8/3 420 м
[Cu Sc Ac lent Cs]
+26.0 +23.1 84 +35 +35 очень
душно
1011.5 1011.2 +28.8
15 22.04 В 3 18 км 8/3 420 м
[Cu Sc Ac lent Cs]
+24.9 +21.9 83 +32 +32 очень
душно
1011.9 1011.6
18 22.04 В 2 18 км 8/1 420 м
[Cu Sc Ac lent Cs]
+24.1 +21.6 86 +31 +31 очень
душно
1010.2 1009.9
21 22.04 В 2 18 км 8/1 420 м
[Cu Sc Ac lent Cs]
+23.6 +21.4 87 +30 +30 очень
душно
1010.1 1009.8
00 23.04 ЮВ 3 27 км 8/1 450 м
[Cu Sc Ac lent Ci sp]
+26.5 +22.3 78 +35 +37 очень
душно
1011.7 1011.4 +23.6 3
03 23.04 З 1 23 км 8/1 420 м
[Cu Sc Ac trans Ci sp]
+31.2 +23.7 64 +42 +55 опасность
перегрева
1012.0 1011.7
06 23.04 З 2 23 км 8/1 420 м
[Cu Sc Ac trans Ci sp]
+32.8 +25.6 66 +48 +58 опасность
перегрева
1009.5 1009.2
09 23.04 СЗ 1 23 км 8/3 420 м
[Cb cap Ac lent Ci sp]
+31.8 +25.1 68 +46 +47 опасность
перегрева
1008.9 1008.6
12 23.04 С 1 18 км 8/3 420 м
[Cu Sc Ac lent Ci sp]
+28.5 +24.6 79 +40 +40 очень
душно
1010.8 1010.5 +33.3
15 23.04 ЮВ 2 18 км {дождь} 8/3 420 м
[Cu Sc Ac lent Cs]
+26.5 +23.3 83 +36 +36 очень
душно
1012.4 1012.1
18 23.04 В 3 18 км 8/3 420 м
[Cu Sc Ac lent Cs]
+25.3 +22.6 85 +33 +33 очень
душно
1010.7 1010.4
21 23.04 В 3 18 км 8/3 420 м
[Cu Sc Ac lent Cs]
+24.6 +22.0 85 +32 +32 очень
душно
1010.5 1010.2
00 24.04 ЮВ 2 25 км 8/3 420 м
[Cu Sc Ac lent Cs]
+27.2 +22.5 76 +36 +38 очень
душно
1012.5 1012.2 +24.4
03 24.04 З 1 25 км 8/3 420 м
[Cu Sc Ac lent Cs]
+31.9 +26.0 71 +47 +59 опасность
перегрева
1012.5 1012.2
06 24.04 СЗ 1 25 км 8/4 420 м
[Cu Sc Ac lent Cs]
+32.3 +26.1 70 +48 +57 опасность
перегрева
1009.7 1009.4
09 24.04 С 1 25 км 8/4 420 м
[Cu Sc Ac lent Cs]
+30.3 +24.6 72 +43 +44 опасность
перегрева
1008.9 1008.6
12 24.04 штиль 0 18 км 8/4 420 м
[Cu Sc Ac lent Cs]
+28.4 +25.1 82 +41 +41 опасность
перегрева
1010.2 1009.9 +33.1
15 24.04 ЮВ 2 18 км 8/3 420 м
[Cu Sc Ac lent Cs]
+26.9 +24.3 86 +38 +38 очень
душно
1011.3 1011.0
18 24.04 ЮВ 2 18 км 8/3 420 м
[Cu Sc Ac lent Cs]
+25.9 +23.7 88 +35 +35 очень
душно
1009.8 1009.5
21 24.04 В 2 18 км 8/3 420 м
[Cu Sc Ac lent Cs]
+25.8 +23.4 87 +35 +35 очень
душно
1009.9 1009.6
00 25.04 ЮВ 2 30 км 8/1 450 м
[Cu Sc Ac lent Ci sp]
+28.7 +23.7 74 +39 +42 очень
душно
1011.7 1011.4 +25.5
03 25.04 СЗ 2 30 км 8/1 450 м
[Cu Sc Ac lent Ci sp]
+31.6 +25.2 69 +46 +56 опасность
перегрева
1011.5 1011.2
06 25.04 СЗ 4 30 км 8/3 450 м
[Cu Sc Ac trans Ci sp]
+32.5 +25.1 65 +46 +52 опасность
перегрева
1008.7 1008.4
09 25.04 С 3 22 км осадки на расстоянии 8/4 420 м
[Cb cap Ac lent Ci sp]
+30.2 +24.6 72 +43 +44 опасность
перегрева
1007.7 1007.4
12 25.04 В 3 18 км 8/5 420 м
[Cu Sc Ac lent Cs]
+27.5 +24.7 85 +39 +39 очень
душно
1009.9 1009.6 +32.7
15 25.04 В 3 18 км 8/5 420 м
[Cu Sc Ac lent Cs]
+26.8 +24.0 85 +37 +37 очень
душно
1010.4 1010.1
18 25.04 В 1 18 км 8/3 420 м
[Cu Sc Ac lent Cs]
+26.5 +23.9 86 +37 +37 очень
душно
1009.4 1009.1
21 25.04 В 2 18 км 8/3 420 м
[Cu Sc Ac lent Cs]
+26.3 +23.7 86 +36 +36 очень
душно
1009.1 1008.8
00 26.04 ЮВ 2 25 км 8/3 450 м
[Cu Sc Ac lent Ci sp]
+28.9 +24.1 75 +40 +42 очень
душно
1010.7 1010.4 +25.9
03 26.04 З 1 25 км 8/3 450 м
[Cu Sc Ac trans Ci sp]
+32.3 +26.7 72 +49 +60 опасность
перегрева
1010.4 1010.1
06 26.04 СЗ 2 25 км 8/3 450 м
[Cu Sc Ac lent Cs]
+32.4 +26.2 70 +49 +57 опасность
перегрева
1007.5 1007.2
09 26.04 С 1 25 км 9/3 420 м
[Cu Sc Ac lent Ci sp]
+30.3 +24.6 72 +43 +44 опасность
перегрева
1006.8 1006.5
12 26.04 ЮВ 2 18 км зарница 9/1 420 м
[Cb cap Ac lent Cs]
+28.3 +25.1 83 +41 +41 опасность
перегрева
1008.6 1008.3 +33.5
15 26.04 В 2 18 км 9/1 420 м
[Cu Sc Ac lent Cs]
+27.0 +24.4 86 +38 +38 очень
душно
1010.1 1009.8
18 26.04 ЮВ 3 18 км 9/1 420 м
[Cu Sc Ac lent Cs]
+26.2 +22.8 82 +35 +35 очень
душно
1008.8 1008.5
21 26.04 ЮВ 2 18 км 9/1 420 м
[Cu Sc Ac lent Cs]
+26.1 +23.0 83 +35 +35 очень
душно
1008.9 1008.6
00 27.04 В 2 23 км 9/3 420 м
[Cu Sc Ac lent Cs]
+28.0 +23.6 77 +38 +40 очень
душно
1011.3 1011.0 +25.7
03 27.04 ЮЗ 2 23 км 9/3 420 м
[Cu Sc Ac lent Cs]
+31.7 +26.4 74 +48 +56 опасность
перегрева
1011.3 1011.0
06 27.04 З 2 23 км 9/3 420 м
[Cu Sc Ac lent Ci sp]
+33.4 +27.4 71 +53 +60 опасность
перегрева
1008.9 1008.6
09 27.04 З 1 23 км 9/3 420 м
[Cu Sc Ac lent Ci sp]
+32.4 +26.7 72 +50 +51 опасность
перегрева
1008.4 1008.1
12 27.04 штиль 0 18 км 9/3 420 м
[Cu Sc Ac lent Cs]
+29.2 +25.2 79 +42 +42 опасность
перегрева
1010.0 1009.7 +33.4
15 27.04 ЮВ 3 18 км 9/3 420 м
[Cu Sc Ac lent Cs]
+27.8 +24.8 84 +40 +40 очень
душно
1011.5 1011.2
18 27.04 В 2 18 км 9/3 420 м
[Cu Sc Ac lent Cs]
+26.3 +23.8 86 +36 +36 очень
душно
1010.3 1010.0
21 27.04 ЮВ 3 18 км 9/3 420 м
[Cu Sc Ac lent Cs]
+25.4 +22.7 85 +33 +33 очень
душно
1010.5 1010.2
00 28.04 ЮВ 3 25 км 9/3 420 м
[Cu Sc Ac lent Ci sp]
+28.6 +23.0 72 +38 +40 очень
душно
1012.0 1011.7 +25.1
03 28.04 З 1 25 км 9/3 420 м
[Cu Sc Ac trans Ci sp]
+32.4 +25.4 67 +47 +56 опасность
перегрева
1011.8 1011.5
06 28.04 З 1 25 км 9/1 420 м
[Cu Sc Ac lent Ci sp]
+33.2 +25.1 63 +47 +58 опасность
перегрева
1008.9 1008.6
09 28.04 СЗ 1 30 км 9/3 420 м
[Cu Sc Ac trans Ci sp]
+32.5 +24.9 64 +46 +47 опасность
перегрева
1008.1 1007.8
12 28.04 С 1 18 км 9/3 420 м
[Cu Sc Ac lent Ci sp]
+28.5 +23.0 72 +38 +38 очень
душно
1009.6 1009.3 +33.9
15 28.04 В 3 18 км 9/3 420 м
[Cu Sc Ac lent Cs]
+26.4 +23.2 83 +36 +36 очень
душно
1010.9 1010.6
18 28.04 В 3 18 км 9/3 420 м
[Cu Sc Ac lent Cs]
+25.2 +22.6 86 +33 +33 очень
душно
1010.3 1010.0
21 28.04 В 3 18 км 9/3 420 м
[Cu Sc Ac lent Cs]
+24.4 +21.4 83 +31 +31 очень
душно
1010.2 1009.9
00 29.04 ЮВ 3 30 км 9/1 450 м
[Cu Sc Ac lent Ci sp]
+28.3 +22.0 69 +37 +39 очень
душно
1011.8 1011.5 +24.4
03 29.04 З 2 30 км 9/1 450 м
[Cu Sc Ac lent Ci sp]
+32.5 +24.5 63 +45 +56 опасность
перегрева
1011.9 1011.6

 

Местоположение метеостанции Kota Kinabalu (Малайзия): широта 5.93 долгота 116.05 высота над уровнем моря 3 м.

В архиве по умолчанию представлена погода в Kota Kinabalu за последнюю неделю. Архивные данные за месяц целиком и за предыдущие месяцы, начиная с января 2011 года, Вы можете получить, выбрав интересующий диапазон дат из раскрывающегося списка и нажав кнопку "Ввод!".

Внимание! Время в таблицах - всемирное. Для получения местного времени необходимо прибавить поправку, которая в Kota Kinabalu равна 8 ч.

Смотрите также архив погоды в соседних городах и на ближайших метеорологических станциях:

Погода в Labuan (Малайзия) (113 км)
Погода в Brunei Airport (Бруней) (167 км)
Погода в Sandakan (Малайзия) (222 км)
Погода в Longbawan (Индонезия) (248 км)
Погода в Tawau (Малайзия) (274 км)
Погода в Miri (Малайзия) (290 км)
Погода в Tarakan (Индонезия) (334 км)
Погода в Tanjung Selor (Индонезия) (371 км)
Погода в Tanjung Redep (Индонезия) (451 км)
Погода в Bintulu (Малайзия) (452 км)

Пояснения к столбцам:

Ветер - указаны скорость ветра в м/с - средняя за 10 мин, порывы в срок и между сроками (в фигурных скобках) и направление, откуда дует ветер: С - северный, СВ - северо-восточный, В - восточный, ЮВ - юго-восточный, Ю - южный, ЮЗ - юго-западный, З - западный, СЗ - северо-западный.
Видимость - горизонтальная дальность видимости в метрах или километрах. При видимости от 1 до 10 км при отсутствии осадков обычно наблюдается дымка, при ухудшении видимости до 1 км и менее - туман. В сухую погоду видимость может ухудшаться дымом, пылью или мглою.
Явления - указаны атмосферные явления, наблюдавшиеся в срок или в последний час перед сроком; фигурными скобками обозначены явления, наблюдавшиеся между сроками (за 1-3 часа до срока); квадратными скобками обозначены град или гололедные отложения с указанием их диаметра в мм.
Облачность - указаны через наклонную черту общая и нижняя облачность в баллах и высота нижней границы облаков в метрах; квадратными скобками обозначены формы облаков: Ci - перистые, Cs - перисто-слоистые, Cc - перисто-кучевые, Ac - высококучевые, As - высокослоистые, Sc - слоисто-кучевые, Ns - слоисто-дождевые, Cu - кучевые, Cb - кучево-дождевые. Подробнее классификацию облаков см. в Атласе облаков (PDF).
T - Температура воздуха - температура, измеренная на высоте 2 м над землей.
Td - Температура точки росы - температура, при понижении до которой содержащийся в воздухе водяной пар достигнет насыщения.
f - Относительная влажность воздуха - влажноcть воздуха, измеренная на высоте 2 м над землей.
Te - Эффективная температура - температура, которую ощущает одетый по сезону человек в тени. Характеристика душности погоды. При расчете учитывается влияние влажности воздуха и скорости ветра на теплоощущения человека.
Tes - Эффективная температура на солнце - температура, которую ощущает человек, с поправкой на солнечный нагрев. Характеристика знойности погоды. Зависит от высоты солнца над горизонтом, облачности и скорости ветра. Ночью, в пасмурную погоду, а также при ветре 12 м/с и более поправка равна нулю.
P - Атмосферное давление - приведенное к уровню моря атмосферное давление.
Po - Атмосферное давление - измеренное на уровне метеостанции атмосферное давление.
Tmin - Минимальная температура - минимум температуры воздуха на высоте 2 м над землей.
Tmax - Максимальная температура - максимум температуры воздуха на высоте 2 м над землей.
R - Количество осадков - Количество выпавших осадков за период времени, мм. При наведении курсора мыши на число - период времени, за который выпало указанное количество осадков.
R24 - Количество осадков - Количество выпавших осадков за 24 часа, мм.
S - Снежный покров - Высота снежного покрова, см. При наведении курсора мыши на число - состояние снежного покрова и степень покрытия местности в баллах.